Location: Ferintosh
(52.7647°N, 112.9692°W)
Time: 22:26:13
(UTC+00:00)

A-11 Canister half - Pass Details

Date: 28 May 2024
Orbit: 1524 x 1683 km, 47.3° (Epoch: 19 June)

Event Time Altitude Azimuth Distance (km) Brightness Sun altitude
Rises 02:48:42 0° 213° (SSW) 4,665 11.6 5.8°
Reaches altitude 10° 02:52:02 10° 205° (SSW) 3,691 11.0 5.3°
Maximum altitude 03:00:07 35° 144° (SE) 2,311 9.6 4.3°
Drops below altitude 10° 03:08:22 10° 83° (E) 3,780 10.6 3.2°
Sets 03:11:49 0° 76° (ENE) 4,790 11.2 2.8°
